Flag for Belarus Weather past 2 weeks in Gomel, Belarus

Now
55 °F

Overcast.


Feels Like: 53 °F
Forecast: 53 / 57 °F
Wind: 10 mph from South

Location: Gomel'

Current Time: Sep 22, 2014 at 11:27:53 AM

Latest Report: Sep 22, 2014 at 11:00 AM


Visibility: N/A

Pressure: 29.83 "Hg

Humidity: 82%

Dew point: 50 °F

Location of GomelLocation

Historic Weather in Gomel — Graph

°F

Gomel temperature yesterday

Maximum temperature yesterday: 64 °F (at 3:00 PM)
Minimum temperature yesterday: 45 °F (at 3:00 AM)
Average temperature yesterday: 53 °F

Past Weeks' High & Low Weather Summary

 TemperatureHumidityPressure
High79 °F (Sep 13, 4:00 PM)100% (Sep 8, 4:00 AM)30.42 "Hg (Sep 8, 4:00 AM)
Low37 °F (Sep 18, 7:00 AM)23% (Sep 20, 2:00 PM)29.83 "Hg (Sep 22, 5:00 AM)
Average59 °F63%30.20 "Hg
* Reported Sep 7 10:00 AM — Sep 22 10:30 AM, Gomel, Weather by CustomWeather, © 2014

Note: Actual official high and low records may vary slightly from our data, if they occured in-between our weather recording intervals... More about our weather records

Advertising

Gomel weather history for previous 24 hours

 ConditionsComfort  
Time TempWeatherWind HumidityBarometerVisibility
10:30 AM
Sep 22
54 °FOvercast.15 mph88%29.83 "HgN/A
10:00 AM54 °FFog.13 mph88%29.83 "Hg2 mi
9:30 AM52 °FFog.13 mph94%29.83 "Hg2 mi
9:00 AM52 °FLow clouds.13 mph94%29.83 "HgN/A
8:30 AM52 °FLow clouds.13 mph88%29.83 "HgN/A
8:00 AM52 °FOvercast.13 mph88%29.83 "HgN/A
7:30 AM52 °FOvercast.13 mph88%29.83 "HgN/A
7:00 AM52 °FOvercast.13 mph88%29.83 "HgN/A
6:30 AM52 °FOvercast.13 mph88%29.83 "HgN/A
6:00 AM52 °FOvercast.13 mph88%29.83 "HgN/A
5:00 AM52 °FOvercast.13 mph88%29.83 "HgN/A
4:00 AM52 °FOvercast.13 mph88%29.86 "HgN/A
3:00 AM52 °FOvercast.13 mph82%29.89 "HgN/A
2:00 AM52 °FOvercast.10 mph82%29.89 "HgN/A
1:00 AM52 °FOvercast.10 mph82%29.92 "HgN/A
12:00 AM52 °FOvercast.13 mph82%29.92 "HgN/A
11:00 PM
Sep 21
52 °FSprinkles. Mostly cloudy.10 mph88%29.95 "HgN/A
10:00 PM54 °FSprinkles. Mostly cloudy.15 mph88%29.95 "HgN/A
9:00 PM54 °FMostly cloudy.10 mph88%29.95 "HgN/A
8:00 PM57 °FMostly cloudy.10 mph72%29.95 "HgN/A
7:30 PM57 °FMore clouds than sun.13 mph72%29.95 "HgN/A
7:00 PM57 °FSprinkles. More clouds than sun.10 mph72%29.95 "HgN/A
6:30 PM59 °FSprinkles. More clouds than sun.15 mph63%29.95 "HgN/A
6:00 PM59 °FSprinkles. More clouds than sun.13 mph63%29.95 "HgN/A
5:30 PM61 °FSunny.8 mph59%29.95 "Hg10 mi
5:00 PM61 °FSunny.10 mph59%29.98 "Hg10 mi
4:30 PM64 °FSunny.10 mph60%29.98 "Hg10 mi
4:00 PM64 °FSunny.10 mph60%29.98 "Hg10 mi
3:30 PM64 °FSunny.10 mph64%29.98 "Hg10 mi
3:00 PM64 °FSunny.10 mph64%30.01 "Hg10 mi
2:30 PM61 °FPartly sunny.10 mph68%30.01 "HgN/A
2:00 PM61 °FPartly sunny.8 mph68%30.01 "HgN/A
1:30 PM57 °FBroken clouds.10 mph77%30.01 "Hg6 mi
1:00 PM57 °FSprinkles. Fog.10 mph77%30.04 "Hg4 mi
12:30 PM54 °FBroken clouds.10 mph77%30.04 "Hg4 mi
12:00 PM54 °FSprinkles. Fog.10 mph77%30.04 "Hg3 mi
11:30 AM52 °FBroken clouds.10 mph82%30.04 "Hg4 mi
11:00 AM52 °FSprinkles. Fog.13 mph82%30.04 "Hg3 mi
Weather by CustomWeather, © 2014

See weather overviewHow to use our weather pages